Date String (YYYY-MM-DD hh:mm:ss) UTC,Instrument flags,Ambient pressure (hPa),Sample flow (lpm),Bypass flow (lpm),Sample temperature (°C),Ambient temperature (°C),ASC tube jacket temperature (°C),LED temperature (°C),Box temperature (°C),Sample RH (%),Span deviation,Mass concentration (μg/m³),Mass concentration (μg/m³),Mass concentration (μg/m³)
DateTimeUTC,F1_M11,P_M11,Q1_M11,Q2_M11,T1_M11,T2_M11,T3_M11,T4_M11,T5_M11,U1_M11,ZSPAN_M11,X0_M11,X2_M11,X1_M11
2022-08-31 20:00:00,,0831.1,4.99,0.00,29.5,27.3,00.0,38.0,31.3,24.4,0000.0,0021.80,0007.07,0005.51
2022-08-31 20:01:00,,0831.0,5.00,0.00,29.4,26.5,00.0,38.0,31.2,25.0,0000.0,0020.61,0006.98,0005.49
2022-08-31 20:02:00,,0831.0,5.00,0.00,29.4,26.6,00.0,37.9,31.2,24.6,0000.0,0020.67,0006.95,0005.46
2022-08-31 20:03:00,,0831.0,5.01,0.00,29.3,26.9,00.0,37.9,31.1,24.5,0000.0,0019.63,0006.90,0005.43
2022-08-31 20:04:00,,0831.0,4.99,0.00,29.3,27.2,00.0,37.9,31.0,24.3,0000.0,0018.75,0006.86,0005.39
2022-08-31 20:05:00,,0831.0,5.00,0.00,29.3,27.5,00.0,37.9,31.1,23.5,0000.0,0018.68,0006.82,0005.37
2022-08-31 20:06:00,,0831.0,5.00,0.00,29.3,27.8,00.0,37.9,31.2,23.5,0000.0,0018.52,0006.76,0005.33
2022-08-31 20:07:00,,0831.0,5.00,0.00,29.3,28.0,00.0,37.9,31.2,23.2,0000.0,0017.92,0006.70,0005.31
2022-08-31 20:08:00,,0831.0,5.01,0.00,29.4,28.2,00.0,38.0,31.3,20.8,0000.0,0017.57,0006.65,0005.25
2022-08-31 20:09:00,,0831.0,4.99,0.00,29.4,28.3,00.0,38.0,31.4,19.3,0000.0,0015.48,0006.57,0005.17
2022-08-31 20:10:00,,0830.9,5.00,0.00,29.4,27.5,00.0,38.0,31.3,19.6,0000.0,0014.98,0006.41,0005.09
2022-08-31 20:11:00,,0830.9,5.01,0.00,29.4,26.6,00.0,38.0,31.2,19.4,0000.0,0015.05,0006.29,0005.02
2022-08-31 20:12:00,,0830.8,5.00,0.00,29.4,26.7,00.0,37.9,31.2,19.3,0000.0,0015.33,0006.19,0004.95
2022-08-31 20:13:00,,0830.8,5.01,0.00,29.3,26.9,00.0,37.9,31.0,19.0,0000.0,0014.72,0006.07,0004.89
2022-08-31 20:14:00,,0830.8,5.00,0.00,29.3,27.2,00.0,37.9,31.0,20.1,0000.0,0014.98,0006.04,0004.83
2022-08-31 20:15:00,,0830.7,5.00,0.00,29.3,27.5,00.0,37.9,31.1,19.8,0000.0,0015.20,0006.00,0004.78
2022-08-31 20:16:00,,0830.7,5.01,0.00,29.3,27.8,00.0,37.9,31.2,19.6,0000.0,0015.20,0005.94,0004.72
2022-08-31 20:17:00,,0830.8,5.00,0.00,29.3,28.0,00.0,37.9,31.2,20.4,0000.0,0015.80,0005.87,0004.67
2022-08-31 20:18:00,,0830.7,4.99,0.00,29.4,28.3,00.0,38.0,31.3,21.3,0000.0,0015.71,0005.88,0004.63
2022-08-31 20:19:00,,0830.8,5.01,0.00,29.4,28.4,00.0,38.0,31.4,21.5,0000.0,0015.68,0005.88,0004.63
2022-08-31 20:20:00,,0830.8,5.00,0.00,29.5,27.7,00.0,38.0,31.4,22.1,0000.0,0016.12,0005.94,0004.65
2022-08-31 20:21:00,,0830.8,4.99,0.00,29.4,26.6,00.0,38.0,31.2,22.6,0000.0,0016.22,0006.00,0004.70
2022-08-31 20:22:00,,0830.7,5.00,0.00,29.4,26.6,00.0,38.0,31.2,23.2,0000.0,0016.40,0006.14,0004.75
2022-08-31 20:23:00,,0830.7,5.00,0.00,29.3,26.9,00.0,37.9,31.1,23.4,0000.0,0018.12,0006.29,0004.81
2022-08-31 20:24:00,,0830.7,4.99,0.00,29.3,27.2,00.0,37.9,31.1,23.7,0000.0,0018.82,0006.43,0004.87
2022-08-31 20:25:00,,0830.7,5.00,0.00,29.3,27.5,00.0,37.9,31.1,23.8,0000.0,0019.21,0006.52,0004.95
2022-08-31 20:26:00,,0830.7,5.00,0.00,29.3,27.8,00.0,37.9,31.2,24.4,0000.0,0019.63,0006.59,0005.01
2022-08-31 20:27:00,,0830.8,5.01,0.00,29.4,28.0,00.0,37.9,31.3,24.5,0000.0,0020.55,0006.64,0005.07
2022-08-31 20:28:00,,0830.8,5.00,0.00,29.4,28.2,00.0,38.0,31.3,25.2,0000.0,0021.03,0006.75,0005.15
2022-08-31 20:29:00,,0830.7,4.98,0.00,29.4,28.4,00.0,38.0,31.4,24.4,0000.0,0021.40,0006.82,0005.23
2022-08-31 20:30:00,,0830.7,5.00,0.00,29.5,27.9,00.0,38.0,31.4,24.0,0000.0,0022.02,0006.93,0005.29
2022-08-31 20:31:00,,0830.8,5.00,0.00,29.4,26.8,00.0,38.0,31.2,24.7,0000.0,0021.98,0007.01,0005.35
2022-08-31 20:32:00,,0830.7,5.00,0.00,29.4,26.7,00.0,38.0,31.2,23.8,0000.0,0023.13,0007.05,0005.40
2022-08-31 20:33:00,,0830.7,5.01,0.00,29.4,26.9,00.0,37.9,31.1,24.1,0000.0,0022.90,0007.04,0005.43
2022-08-31 20:34:00,,0830.7,4.99,0.00,29.3,27.2,00.0,37.9,31.1,24.5,0000.0,0021.43,0007.01,0005.45
2022-08-31 20:35:00,,0830.8,5.00,0.00,29.3,27.5,00.0,37.9,31.1,24.7,0000.0,0021.18,0006.99,0005.46
2022-08-31 20:36:00,,0830.8,5.00,0.00,29.4,27.8,00.0,37.9,31.2,24.1,0000.0,0021.46,0007.02,0005.48
2022-08-31 20:37:00,,0830.8,5.01,0.00,29.4,28.0,00.0,37.9,31.2,24.4,0000.0,0021.76,0007.03,0005.48
2022-08-31 20:38:00,,0830.8,5.01,0.00,29.4,28.3,00.0,38.0,31.3,24.3,0000.0,0021.34,0007.04,0005.49
2022-08-31 20:39:00,,0830.7,4.99,0.00,29.5,28.3,00.0,38.0,31.4,23.5,0000.0,0020.90,0007.02,0005.48
2022-08-31 20:40:00,,0830.8,5.01,0.00,29.5,27.5,00.0,38.0,31.3,23.4,0000.0,0020.74,0006.97,0005.46
2022-08-31 20:41:00,,0830.8,5.00,0.00,29.4,26.7,00.0,38.0,31.2,23.8,0000.0,0020.84,0006.92,0005.44
2022-08-31 20:42:00,,0830.7,5.01,0.00,29.4,26.9,00.0,38.0,31.3,24.1,0000.0,0021.03,0006.91,0005.42
2022-08-31 20:43:00,,0830.6,4.99,0.00,29.4,27.1,00.0,38.0,31.1,24.3,0000.0,0020.43,0006.92,0005.41
2022-08-31 20:44:00,,0830.6,5.00,0.00,29.4,27.4,00.0,37.9,31.1,24.6,0000.0,0020.34,0006.90,0005.40
2022-08-31 20:45:00,,0830.6,5.00,0.00,29.4,27.7,00.0,38.0,31.2,24.5,0000.0,0021.09,0006.89,0005.39
2022-08-31 20:46:00,,0830.6,5.01,0.00,29.4,28.0,00.0,38.0,31.3,24.4,0000.0,0021.95,0006.89,0005.39
2022-08-31 20:47:00,,0830.6,5.01,0.00,29.4,28.2,00.0,38.0,31.4,24.3,0000.0,0021.38,0006.87,0005.39
2022-08-31 20:48:00,,0830.5,4.98,0.00,29.5,28.4,00.0,38.0,31.4,24.8,0000.0,0021.78,0006.86,0005.40
2022-08-31 20:49:00,,0830.6,5.01,0.00,29.5,27.5,00.0,38.0,31.4,25.4,0000.0,0021.98,0006.89,0005.41
2022-08-31 20:50:00,,0830.5,5.00,0.00,29.5,26.7,00.0,38.0,31.3,25.6,0000.0,0022.00,0006.92,0005.42
2022-08-31 20:51:00,,0830.5,5.00,0.00,29.4,26.8,00.0,38.0,31.3,25.3,0000.0,0022.49,0006.96,0005.44
2022-08-31 20:52:00,,0830.4,5.00,0.00,29.4,27.0,00.0,38.0,31.1,25.5,0000.0,0022.36,0007.01,0005.48
2022-08-31 20:53:00,,0830.5,4.99,0.00,29.4,27.3,00.0,38.0,31.1,25.3,0000.0,0024.33,0007.09,0005.49
2022-08-31 20:54:00,,0830.4,5.00,0.00,29.4,27.6,00.0,38.0,31.2,25.3,0000.0,0024.88,0007.09,0005.51
2022-08-31 20:55:00,,0830.4,5.01,0.00,29.4,27.9,00.0,38.0,31.3,25.1,0000.0,0025.44,0007.15,0005.53
2022-08-31 20:56:00,,0830.4,4.99,0.00,29.4,28.2,00.0,38.0,31.4,25.0,0000.0,0024.26,0007.16,0005.54
2022-08-31 20:57:00,,0830.4,5.00,0.00,29.5,28.4,00.0,38.0,31.4,24.8,0000.0,0023.81,0007.19,0005.54
2022-08-31 20:58:00,,0830.4,5.00,0.00,29.5,28.1,00.0,38.0,31.4,24.8,0000.0,0024.60,0007.24,0005.54
2022-08-31 20:59:00,,0830.4,5.00,0.00,29.5,27.0,00.0,38.0,31.3,25.0,0000.0,0024.13,0007.30,0005.54
